Regional Weather Roundup
Issued by NWS Cleveland, OH

Home | Current Version | Previous Version | Graphics & Text | Print | Product List | Glossary On
Versions: 1 2 3 4 5 6 7 8 9 10 11 12 13 14 15 16 17 18 19 20 21 22 23 24 25 26 27 28 29 30 31 32 33 34 35 36 37 38 39 40 41 42 43 44 45 46 47 48 49 50
000
ASUS41 KCLE 300200
RWRCLE
OHIO REGIONAL WEATHER ROUNDUP
NATIONAL WEATHER SERVICE WILMINGTON, OH
1000 PM EDT FRI MAY 29 2015

NOTE: "FAIR" INDICATES FEW OR NO CLOUDS BELOW 12,000 FEET WITH NO
SIGNIFICANT WEATHER AND/OR OBSTRUCTIONS TO VISIBILITY.

OHZ001>008-015>018-024>027-034-035-043-044-300300-
   NORTHWEST OHIO

CITY           SKY/WX    TMP DP  RH WIND       PRES   REMARKS
DEFIANCE       PTCLDY    76  63  64 S5        30.00R
FINDLAY        PTCLDY    74  64  71 S8        30.02R
TOLEDO EXPRESS PTCLDY    74  66  76 S6        30.00R
TOLEDO EXEC    PTCLDY    76  65  68 S9        30.01S
LIMA           PTCLDY    76  63  64 S7        30.03S
$$

OHZ009>014-019>023-028>033-038-089-300300-
   NORTHEAST OHIO

CITY           SKY/WX    TMP DP  RH WIND       PRES   REMARKS
CLE-HOPKINS    PTCLDY    78  64  61 S12       30.07R
CLE-LAKEFRONT  PTCLDY    80  63  55 S10       30.04R
CUY CO. ARPT   MOCLDY    81  66  61 S13       30.07R
LORAIN-ELYRIA  CLEAR     77  65  66 S12       30.06R
ASHTABULA      MOCLDY    74  66  76 SE7       30.08R
AKRON-CANTON   PTCLDY    74  64  71 S7        30.11R
WOOSTER        NOT AVBL
MANSFIELD      CLEAR     75  65  70 S12       30.09R
YOUNGSTOWN     MOCLDY    74  64  71 SE8       30.11R
$$

OHZ042-051>053-060>062-070>072-077>081-300300-
  SOUTHWEST OHIO

CITY           SKY/WX    TMP DP  RH WIND       PRES   REMARKS
CINC-COVINGTON MOCLDY    72  67  84 S5        30.08R
CINC-LUNKEN    PTCLDY    73  67  81 S7        30.07R
HAMILTON       PTCLDY    72  70  93 CALM      30.07R
DAYTON         NOT AVBL
WRIGHT-PAT AFB NOT AVBL
DAYTON GENERAL PTCLDY    75  64  68 S7        30.07R
WILMINGTON     CLEAR     73  64  73 S7        30.09R
$$

OHZ036-037-039>041-045>050-054>059-063>069-073>076-082>088-300300-
  CENTRAL AND SOUTHEAST OHIO

CITY           SKY/WX    TMP DP  RH WIND       PRES   REMARKS
COLUMBUS       MOCLDY    76  65  68 S8        30.08S
OSU AIRPORT    PTCLDY    76  66  71 S10       30.08R
BOLTON FIELD   NOT AVBL
RICKENBACK AFB NOT AVBL
NEWARK         PTCLDY    75  66  73 S8        30.09R
MARION         PTCLDY    76  64  66 S14       30.07R
LANCASTER      PTCLDY    75  66  73 S5        30.10S
ZANESVILLE     MOCLDY    75  65  70 S7        30.11R
NEW PHILLY     PTCLDY    75  69  81 SE5       30.11R
$$


USA.gov is the U.S. government's official web portal to all federal, state and local government web resources and services.